LUCH-5B (38977 NORAD) Tracking and Keplerian Element Data

This shows tracking and keplerian element data for the satellite.

Feedback or suggestion? Click here.




ElementValue
Catalog38977
NameLUCH-5B
Epoch Orbit4460
Epoch Day34.69470061
Epoch Year2025
RAAN54.635
Inclination9.3971
Eccentricity0.0004302
Argument of Perigee200.7208
Mean Anonmoly112.4921
Mean Motion1.00271194
Decay Rate-1.36E-06
L11 38977U 12061A 25034.69470061 -.00000136 00000+0 00000+0 0 9990
L22 38977 9.3971 54.6350 0004302 200.7208 112.4921 1.00271194 44605



Live tracking and technical data element details for LUCH-5B (NORAD 38977). LUCH-5B can be tracked NOW for your location showing map with azimuth and elevation plus other details from your city location.







IsCatalogInMostPopularTable: catalog: 38977, numindb: 671
Update: records affected: 1



GetName: 38977 LUCH-5B

Hit Count: updated at: Wed, 18 Jun 2025 05:59:13 GMT